Weather History for Parkersburg, WV

Change the Weather History Date:

Thursday, January 31, 2013

  Actual Average Record
Temperature  
Mean Temperature 33 °F 32 °F  
Max Temperature 40 °F 41 °F 75 °F (2002)
Min Temperature 26 °F 24 °F -2 °F (1936)
Degree Days  
Heating Degree Days 32 33  
Month to date heating degree days 934 1038  
Since 1 July heating degree days 2841 2945  
Moisture  
Dew Point 21 °F    
Average Humidity 65    
Maximum Humidity 84    
Minimum Humidity 46    
Precipitation  
Precipitation 0.04 in 0.10 in 0.20 in (2000)
Month to date precipitation 3.38 2.95  
Year to date precipitation 3.38 2.95  
Snow  
Snow 0.00 in - - ()
Snow Depth 0.00 in    
Sea Level Pressure  
Sea Level Pressure 29.82 in    
Wind  
Wind Speed 13 mph (WSW)    
Max Wind Speed 28 mph    
Max Gust Speed 41 mph    
Visibility 6 miles    
Events Fog , Rain , Snow    
T = Trace of Precipitation, MM = Missing Value Source: NWS Daily Summary

Daily Weather History Graph

Daily Weather History Graph

Search for Another Location

Airport:

Trip Planner

Search our weather history database for the weather conditions in past years. The results will help you decide how hot, cold, wet, or windy it might be!

Date:

Astronomy

Jan. 31, 2013 Rise Set
Actual Time 7:33 AM EST 5:45 PM EST
Civil Twilight 7:05 AM EST 6:13 PM EST
Nautical Twilight 6:33 AM EST 6:45 PM EST
Astronomical Twilight 6:01 AM EST 7:17 PM EST
Moon 10:44 PM EST (1/31) 9:34 AM EST (1/31)
Length of Visible Light 11h 08m
Length of Day
10h 11m
Waning Gibbous, 80% of the Moon is Illuminated
Jan 31
Waning Gibbous
Feb 3
Last Quarter
Feb 10
New
Feb 17
First Quarter
Feb 25
Full

Hourly Weather History & Observations

Time (EST) Temp. Windchill Dew Point Humidity Pressure Visibility Wind Dir Wind Speed Gust Speed Precip Events Conditions
12:04 AM 39.2 °F 30.8 °F 35.6 °F 87% 29.45 in 10.0 mi West 15.0 mph 23.0 mph 0.00 in   Overcast
12:19 AM 39.2 °F 30.5 °F 33.8 °F 81% 29.44 in 10.0 mi West 16.1 mph 24.2 mph 0.00 in   Overcast
12:53 AM 39.0 °F 28.5 °F 33.1 °F 79% 29.48 in 10.0 mi West 23.0 mph 29.9 mph 0.00 in   Overcast
1:14 AM 37.4 °F 27.5 °F 33.8 °F 87% 29.50 in 6.0 mi West 18.4 mph 31.1 mph 0.01 in Rain Light Rain
1:32 AM 35.6 °F 23.7 °F 30.2 °F 81% 29.52 in 7.0 mi West 24.2 mph 35.7 mph 0.02 in   Overcast
1:53 AM 35.1 °F 23.5 °F 30.0 °F 82% 29.55 in 10.0 mi West 21.9 mph 40.3 mph 0.02 in   Overcast
2:53 AM 34.0 °F 21.8 °F 25.0 °F 70% 29.60 in 10.0 mi West 23.0 mph 33.4 mph N/A   Overcast
3:07 AM 33.8 °F 22.2 °F 24.8 °F 70% 29.60 in 10.0 mi West 20.7 mph 33.4 mph N/A   Overcast
3:53 AM 34.0 °F 23.4 °F 23.0 °F 64% 29.62 in 10.0 mi WSW 17.3 mph 29.9 mph 0.00 in   Overcast
4:53 AM 33.1 °F 22.6 °F 21.9 °F 64% 29.65 in 10.0 mi West 16.1 mph 26.5 mph N/A   Overcast
5:53 AM 32.0 °F 22.5 °F 21.0 °F 64% 29.69 in 9.0 mi West 12.7 mph 31.1 mph 0.00 in   Overcast
6:24 AM 30.2 °F 21.3 °F 23.0 °F 75% 29.71 in 6.0 mi WSW 10.4 mph - 0.00 in Snow Light Snow
6:53 AM 30.9 °F 21.2 °F 21.0 °F 67% 29.73 in 10.0 mi West 12.7 mph 20.7 mph 0.00 in Snow Light Snow
7:10 AM 30.2 °F 17.8 °F 21.2 °F 69% 29.74 in 10.0 mi West 19.6 mph 31.1 mph N/A   Overcast
7:49 AM 28.4 °F 15.8 °F 21.2 °F 74% 29.76 in 2.0 mi West 18.4 mph 34.5 mph 0.00 in Snow Light Snow
7:53 AM 28.9 °F 18.2 °F 21.0 °F 72% 29.78 in 2.0 mi West 13.8 mph 32.2 mph 0.00 in Snow Light Snow
8:24 AM 28.4 °F 18.5 °F 19.4 °F 69% 29.78 in 2.5 mi West 11.5 mph 24.2 mph 0.00 in Snow Light Snow
8:53 AM 28.0 °F 16.1 °F 19.0 °F 69% 29.82 in 10.0 mi West 16.1 mph 24.2 mph 0.00 in Snow Light Snow
9:01 AM 28.4 °F 16.6 °F 17.6 °F 64% 29.80 in 9.0 mi West 16.1 mph 24.2 mph 0.00 in   Overcast
9:53 AM 28.0 °F 17.0 °F 18.0 °F 66% 29.84 in 5.0 mi West 13.8 mph 20.7 mph 0.00 in Snow Light Snow
10:16 AM 28.4 °F 17.0 °F 19.4 °F 69% 29.85 in 1.0 mi West 15.0 mph 20.7 mph 0.00 in Snow Light Snow
10:21 AM 26.6 °F 13.8 °F 21.2 °F 80% 29.85 in 0.8 mi West 17.3 mph 23.0 mph 0.00 in Snow Light Snow
10:28 AM 26.6 °F 15.2 °F 21.2 °F 80% 29.85 in 0.2 mi West 13.8 mph 29.9 mph 0.00 in Fog , Snow Snow
10:37 AM 26.6 °F 15.2 °F 21.2 °F 80% 29.85 in 0.8 mi West 13.8 mph 29.9 mph 0.00 in Snow Light Snow
10:45 AM 26.6 °F 14.7 °F 21.2 °F 80% 29.86 in 2.5 mi West 15.0 mph 25.3 mph 0.00 in Snow Light Snow
10:53 AM 27.0 °F 17.3 °F 19.9 °F 75% 29.88 in 7.0 mi West 10.4 mph 25.3 mph 0.00 in Snow Light Snow
11:03 AM 26.6 °F 13.1 °F 19.4 °F 74% 29.86 in 1.8 mi WSW 19.6 mph 31.1 mph 0.00 in Snow Light Snow
11:14 AM 26.6 °F 14.7 °F 19.4 °F 74% 29.86 in 2.0 mi West 15.0 mph 31.1 mph 0.00 in Snow Light Snow
11:21 AM 28.4 °F 18.0 °F 21.2 °F 74% 29.86 in 9.0 mi WSW 12.7 mph 23.0 mph 0.00 in   Overcast
11:53 AM 28.9 °F 18.6 °F 19.0 °F 67% 29.88 in 7.0 mi WSW 12.7 mph 25.3 mph 0.00 in   Overcast
11:59 AM 28.4 °F 15.1 °F 19.4 °F 69% 29.87 in 2.0 mi West 20.7 mph 26.5 mph 0.00 in Snow Light Snow
12:02 PM 28.4 °F 16.6 °F 19.4 °F 69% 29.87 in 0.8 mi West 16.1 mph 28.8 mph 0.00 in Snow Light Snow
12:07 PM 26.6 °F 13.4 °F 21.2 °F 80% 29.87 in 0.2 mi West 18.4 mph 35.7 mph 0.00 in Fog , Snow Snow
12:16 PM 26.6 °F 15.2 °F 21.2 °F 80% 29.87 in 0.2 mi West 13.8 mph 31.1 mph 0.01 in Fog , Snow Snow
12:22 PM 26.6 °F 14.3 °F 21.2 °F 80% 29.87 in 1.2 mi West 16.1 mph 23.0 mph 0.01 in Snow Light Snow
12:42 PM 26.6 °F 13.4 °F 19.4 °F 74% 29.88 in 2.5 mi WSW 18.4 mph 25.3 mph 0.01 in Snow Light Snow
12:49 PM 26.6 °F 13.1 °F 17.6 °F 69% 29.88 in 9.0 mi West 19.6 mph 34.5 mph 0.01 in   Mostly Cloudy
12:53 PM 28.0 °F 14.6 °F 17.1 °F 63% 29.91 in 10.0 mi West 20.7 mph 34.5 mph 0.01 in   Mostly Cloudy
1:53 PM 28.0 °F 16.1 °F 10.9 °F 49% 29.92 in 10.0 mi West 16.1 mph 26.5 mph N/A   Overcast
2:53 PM 28.9 °F 19.2 °F 10.9 °F 47% 29.93 in 10.0 mi West 11.5 mph 26.5 mph N/A   Overcast
3:53 PM 28.9 °F 15.8 °F 10.0 °F 45% 29.94 in 10.0 mi West 20.7 mph 28.8 mph N/A   Overcast
4:53 PM 28.9 °F 18.6 °F 12.0 °F 49% 29.94 in 10.0 mi WSW 12.7 mph 25.3 mph N/A   Mostly Cloudy
5:53 PM 28.0 °F 18.1 °F 12.0 °F 51% 29.94 in 10.0 mi WSW 11.5 mph 18.4 mph N/A   Mostly Cloudy
6:53 PM 28.0 °F 20.8 °F 16.0 °F 61% 29.94 in 10.0 mi SSW 6.9 mph - N/A   Overcast
7:53 PM 27.0 °F 20.5 °F 17.1 °F 66% 29.95 in 10.0 mi SSW 5.8 mph - N/A   Scattered Clouds
8:25 PM 28.4 °F 18.5 °F 19.4 °F 69% 29.93 in 1.8 mi WSW 11.5 mph 17.3 mph 0.00 in Snow Light Snow
8:34 PM 26.6 °F 20.0 °F 21.2 °F 80% 29.93 in 0.8 mi WSW 5.8 mph 17.3 mph 0.00 in Snow Light Snow
8:39 PM 26.6 °F 20.0 °F 21.2 °F 80% 29.92 in 2.5 mi SW 5.8 mph - 0.00 in Snow Light Snow
8:46 PM 26.6 °F 17.5 °F 19.4 °F 74% 29.92 in 9.0 mi SW 9.2 mph - 0.00 in   Overcast
8:53 PM 27.0 °F 20.5 °F 19.9 °F 75% 29.95 in 10.0 mi SW 5.8 mph - 0.00 in   Overcast
9:53 PM 27.0 °F 18.7 °F 21.0 °F 78% 29.95 in 5.0 mi WSW 8.1 mph - 0.00 in Snow Light Snow
10:00 PM 26.6 °F 17.5 °F 21.2 °F 80% 29.92 in 1.8 mi SW 9.2 mph 17.3 mph 0.00 in Snow Light Snow
10:07 PM 26.6 °F 19.1 °F 23.0 °F 86% 29.91 in 1.2 mi WSW 6.9 mph - 0.00 in Snow Light Snow
10:22 PM 26.6 °F 21.2 °F 23.0 °F 86% 29.91 in 2.0 mi Variable 4.6 mph - 0.00 in Snow Light Snow
10:27 PM 26.6 °F 21.2 °F 23.0 °F 86% 29.91 in 1.5 mi Variable 4.6 mph - 0.00 in Snow Light Snow
10:53 PM 26.1 °F 18.4 °F 23.0 °F 88% 29.92 in 1.8 mi WSW 6.9 mph - 0.01 in Snow Light Snow
11:04 PM 26.6 °F 21.2 °F 23.0 °F 86% 29.89 in 2.5 mi SW 4.6 mph - 0.00 in Snow Light Snow
11:12 PM 26.6 °F 21.2 °F 24.8 °F 93% 29.88 in 4.0 mi SSW 4.6 mph - 0.00 in Snow Light Snow
11:29 PM 26.6 °F 21.2 °F 23.0 °F 86% 29.88 in 5.0 mi SSW 4.6 mph - 0.00 in   Overcast
11:53 PM 26.1 °F 21.9 °F 23.0 °F 88% 29.90 in 6.0 mi SSW 3.5 mph - 0.00 in   Overcast